• In Netherlands
  • List of Countries
  • For 7 days
  • Water Temperature
  • Satellite Maps
  • Weather Map
  • Weather Widgets
  • user-avatar
    Login

    Hourly Weather Townsville

    Today, 29 March, Wednesday

    Time Temperature Precipitation Wind Pressure Humidity
    00:00 +27°C° 0.1 mm 9 mps 741 mmHg 86%
    01:00 +27°C° 0.1 mm 9 mps 741 mmHg 86%
    02:00 +27°C° 0.2 mm 9 mps 741 mmHg 86%
    03:00 +27°C° 0.2 mm 8 mps 741 mmHg 86%
    04:00 +27°C° 0 mm 8 mps 741 mmHg 84%
    05:00 +27°C° 0.4 mm 7 mps 742 mmHg 85%
    06:00 +27°C° 0.4 mm 7 mps 743 mmHg 86%
    07:00 +26°C° 0.4 mm 6 mps 744 mmHg 88%
    08:00 +27°C° 0.1 mm 6 mps 744 mmHg 85%
    09:00 +28°C° 0.1 mm 6 mps 745 mmHg 83%
    10:00 +28°C° 0.1 mm 5 mps 745 mmHg 80%
    11:00 +30°C° 0 mm 5 mps 745 mmHg 75%
    12:00 +32°C° 0 mm 5 mps 745 mmHg 70%
    13:00 +33°C° 0 mm 6 mps 746 mmHg 65%
    14:00 +33°C° 1.6 mm 6 mps 745 mmHg 70%
    15:00 +32°C° 1.6 mm 6 mps 745 mmHg 75%
    16:00 +32°C° 1.6 mm 6 mps 745 mmHg 80%
    17:00 +30°C° 0.8 mm 6 mps 746 mmHg 84%
    18:00 +29°C° 0.8 mm 6 mps 746 mmHg 87%
    19:00 +28°C° 0.8 mm 6 mps 747 mmHg 91%
    20:00 +28°C° 0.2 mm 6 mps 747 mmHg 92%
    21:00 +28°C° 0.2 mm 6 mps 748 mmHg 93%
    22:00 +28°C° 0.2 mm 6 mps 748 mmHg 94%
    23:00 +28°C° 0.2 mm 6 mps 748 mmHg 94%

    Tomorrow, 30 March, Thursday

    Time Temperature Precipitation Wind Pressure Humidity
    00:00 +28°C° 0.2 mm 6 mps 748 mmHg 93%
    01:00 +28°C° 0.2 mm 6 mps 748 mmHg 93%
    02:00 +28°C° 0.3 mm 5 mps 748 mmHg 93%
    03:00 +28°C° 0.3 mm 5 mps 748 mmHg 92%
    04:00 +28°C° 0.3 mm 5 mps 748 mmHg 92%
    05:00 +28°C° 0.1 mm 5 mps 749 mmHg 91%
    06:00 +27°C° 0.1 mm 5 mps 749 mmHg 90%
    07:00 +27°C° 0.1 mm 4 mps 750 mmHg 90%
    08:00 +29°C° 0.2 mm 4 mps 750 mmHg 80%
    09:00 +32°C° 0.2 mm 4 mps 751 mmHg 71%
    10:00 +35°C° 0.2 mm 4 mps 751 mmHg 61%
    11:00 +36°C° 0 mm 4 mps 751 mmHg 54%
    12:00 +38°C° 0 mm 4 mps 750 mmHg 46%
    13:00 +40°C° 0 mm 4 mps 750 mmHg 39%
    14:00 +38°C° 0 mm 4 mps 749 mmHg 43%
    15:00 +38°C° 0 mm 4 mps 749 mmHg 47%
    16:00 +37°C° 0 mm 5 mps 748 mmHg 52%
    17:00 +34°C° 0.3 mm 4 mps 749 mmHg 65%
    18:00 +32°C° 0.3 mm 4 mps 749 mmHg 78%
    19:00 +29°C° 0.3 mm 3 mps 749 mmHg 91%
    20:00 +29°C° 0.1 mm 3 mps 750 mmHg 92%
    21:00 +29°C° 0.1 mm 3 mps 750 mmHg 92%
    22:00 +29°C° 0.1 mm 3 mps 751 mmHg 93%
    23:00 +28°C° 0.1 mm 3 mps 751 mmHg 93%

    Day after tomorrow, 31 March, Friday

    Time Temperature Precipitation Wind Pressure Humidity
    00:00 +28°C° 0.1 mm 3 mps 751 mmHg 94%
    01:00 +28°C° 0.1 mm 3 mps 750 mmHg 94%
    02:00 +28°C° 0.5 mm 3 mps 750 mmHg 92%
    03:00 +27°C° 0.5 mm 2 mps 750 mmHg 90%
    04:00 +27°C° 0.5 mm 2 mps 750 mmHg 88%
    05:00 +27°C° 0.1 mm 2 mps 750 mmHg 84%
    06:00 +27°C° 0.1 mm 2 mps 751 mmHg 81%
    07:00 +26°C° 0.1 mm 2 mps 751 mmHg 78%
    08:00 +28°C° 0.1 mm 2 mps 751 mmHg 70%
    09:00 +30°C° 0.1 mm 3 mps 752 mmHg 62%
    10:00 +31°C° 0.1 mm 3 mps 752 mmHg 54%
    11:00 +34°C° 0 mm 2 mps 752 mmHg 51%
    12:00 +36°C° 0 mm 2 mps 751 mmHg 47%
    13:00 +37°C° 0 mm 1 mps 751 mmHg 43%
    14:00 +38°C° 0 mm 2 mps 750 mmHg 47%
    15:00 +37°C° 0 mm 3 mps 750 mmHg 50%
    16:00 +36°C° 0 mm 3 mps 750 mmHg 53%
    17:00 +34°C° 0.4 mm 3 mps 750 mmHg 64%
    18:00 +31°C° 0.4 mm 3 mps 750 mmHg 75%
    19:00 +28°C° 0.4 mm 3 mps 751 mmHg 86%
    20:00 +28°C° 0.3 mm 3 mps 751 mmHg 89%
    21:00 +28°C° 0.3 mm 3 mps 752 mmHg 93%
    22:00 +27°C° 0.3 mm 3 mps 753 mmHg 96%
    23:00 +27°C° 0.2 mm 3 mps 752 mmHg 97%

    1 April, Saturday

    Time Temperature Precipitation Wind Pressure Humidity
    00:00 +27°C° 0.2 mm 3 mps 752 mmHg 98%
    01:00 +26°C° 0.2 mm 4 mps 752 mmHg 98%
    02:00 +26°C° 0.2 mm 4 mps 752 mmHg 98%
    03:00 +26°C° 0.2 mm 4 mps 751 mmHg 98%
    04:00 +25°C° 0.2 mm 4 mps 751 mmHg 98%
    05:00 +26°C° 0 mm 4 mps 752 mmHg 96%
    06:00 +26°C° 0 mm 4 mps 752 mmHg 95%
    07:00 +26°C° 0 mm 4 mps 752 mmHg 93%
    08:00 +27°C° 0 mm 4 mps 753 mmHg 87%
    09:00 +28°C° 0 mm 4 mps 753 mmHg 80%
    10:00 +29°C° 0 mm 4 mps 753 mmHg 74%
    11:00 +30°C° 0 mm 4 mps 753 mmHg 71%
    12:00 +32°C° 0 mm 4 mps 752 mmHg 67%
    13:00 +32°C° 0 mm 4 mps 752 mmHg 64%
    14:00 +32°C° 0 mm 4 mps 751 mmHg 64%
    15:00 +32°C° 0 mm 4 mps 751 mmHg 63%
    16:00 +32°C° 0 mm 4 mps 751 mmHg 63%
    17:00 +30°C° 0 mm 4 mps 751 mmHg 71%
    18:00 +28°C° 0 mm 4 mps 752 mmHg 80%
    19:00 +26°C° 0 mm 3 mps 752 mmHg 89%
    20:00 +25°C° 0 mm 3 mps 753 mmHg 90%
    21:00 +25°C° 0 mm 3 mps 753 mmHg 92%
    22:00 +24°C° 0 mm 3 mps 754 mmHg 93%
    23:00 +24°C° 0 mm 3 mps 753 mmHg 93%

    2 April, Sunday

    Time Temperature Precipitation Wind Pressure Humidity
    00:00 +24°C° 0 mm 3 mps 753 mmHg 93%
    01:00 +22°C° 0 mm 3 mps 753 mmHg 94%
    02:00 +22°C° 0 mm 3 mps 753 mmHg 94%
    03:00 +22°C° 0 mm 3 mps 753 mmHg 95%
    04:00 +21°C° 0 mm 4 mps 752 mmHg 95%
    05:00 +22°C° 0 mm 4 mps 753 mmHg 95%
    06:00 +22°C° 0 mm 4 mps 753 mmHg 94%
    07:00 +23°C° 0 mm 4 mps 754 mmHg 94%
    08:00 +25°C° 0.1 mm 4 mps 754 mmHg 88%
    09:00 +27°C° 0.1 mm 5 mps 754 mmHg 81%
    10:00 +29°C° 0.1 mm 5 mps 754 mmHg 74%
    11:00 +29°C° 0.3 mm 5 mps 754 mmHg 73%
    12:00 +30°C° 0.3 mm 5 mps 753 mmHg 71%
    13:00 +30°C° 0.3 mm 6 mps 753 mmHg 69%
    14:00 +29°C° 0.2 mm 6 mps 753 mmHg 72%
    15:00 +29°C° 0.2 mm 6 mps 753 mmHg 75%
    16:00 +28°C° 0.2 mm 6 mps 752 mmHg 78%
    17:00 +27°C° 0.2 mm 6 mps 753 mmHg 82%
    18:00 +26°C° 0.2 mm 6 mps 754 mmHg 86%
    19:00 +24°C° 0.2 mm 6 mps 754 mmHg 91%
    20:00 +24°C° 0.2 mm 6 mps 754 mmHg 91%
    21:00 +23°C° 0.2 mm 6 mps 755 mmHg 91%
    22:00 +23°C° 0.2 mm 6 mps 755 mmHg 91%
    23:00 +23°C° 0.1 mm 6 mps 755 mmHg 92%

    3 April, Monday

    Time Temperature Precipitation Wind Pressure Humidity
    00:00 +22°C° 0.1 mm 6 mps 754 mmHg 93%
    01:00 +22°C° 0.1 mm 6 mps 754 mmHg 95%
    02:00 +22°C° 0 mm 6 mps 754 mmHg 95%
    03:00 +21°C° 0 mm 6 mps 754 mmHg 95%
    04:00 +21°C° 0 mm 5 mps 754 mmHg 96%
    05:00 +21°C° 0 mm 5 mps 754 mmHg 95%
    06:00 +21°C° 0 mm 5 mps 755 mmHg 94%
    07:00 +21°C° 0 mm 5 mps 755 mmHg 94%
    08:00 +23°C° 0 mm 5 mps 755 mmHg 84%
    09:00 +26°C° 0 mm 6 mps 755 mmHg 74%
    10:00 +29°C° 0 mm 6 mps 755 mmHg 64%
    11:00 +30°C° 0 mm 5 mps 755 mmHg 60%
    12:00 +32°C° 0 mm 5 mps 754 mmHg 56%
    13:00 +33°C° 0 mm 5 mps 753 mmHg 51%
    14:00 +32°C° 0.1 mm 5 mps 753 mmHg 55%
    15:00 +32°C° 0.1 mm 5 mps 753 mmHg 59%
    16:00 +30°C° 0.1 mm 6 mps 753 mmHg 62%
    17:00 +28°C° 0.4 mm 6 mps 753 mmHg 69%
    18:00 +27°C° 0.4 mm 6 mps 753 mmHg 76%
    19:00 +24°C° 0.4 mm 6 mps 754 mmHg 83%
    20:00 +24°C° 0.4 mm 6 mps 754 mmHg 86%
    21:00 +24°C° 0.4 mm 7 mps 754 mmHg 88%
    22:00 +23°C° 0.4 mm 7 mps 755 mmHg 91%
    23:00 +23°C° 0.2 mm 7 mps 754 mmHg 91%
    Show more